Wetbulb
44.48 44.81 45.16 45.55 45.73 45.40 45.46 45.73 45.84 46.05 46.39 47.12 47.99 48.87 49.87 51.51 52.43 46.59 43.90 45.12 42.10 41.02 40.32 42.87 43.96 38.63 38.14 35.77 28.31 33.40 32.59 33.74 34.68 30.85 31.88 32.71 29.45 30.94 29.03 34.09 28.32 31.27 29.05 25.02 28.15 25.05 23.77 37.83 34.54 27.66 31.36 32.83 32.98 33.08
44.39 44.67 45.62 45.65 45.76 45.63 45.14 45.21 45.55 45.70 45.96 46.92 47.60 48.52 49.43 50.51 51.71 48.95 41.41 45.22 44.42 39.34 38.02 42.40 44.31 45.51 44.01 42.75 35.90 34.29 33.23 33.67 34.45 32.96 35.51 34.38 31.47 33.70 30.00 28.92 39.17 30.86 32.36 29.96 28.79 29.23 36.81 37.80 35.29 36.54 35.16 31.92 33.02 32.77
44.35 44.77 45.60 46.02 45.67 45.87 45.29 45.09 45.23 45.57 46.20 46.69 47.34 48.48 49.18 49.91 51.78 48.95 42.58 43.23 41.27 39.53 38.91 38.11 38.92 44.31 45.44 45.27 45.61 33.60 36.17 38.02 35.64 40.42 37.37 35.44 30.50 34.91 31.04 32.89 34.21 37.72 33.79 30.33 30.55 34.25 35.10 37.50 37.95 36.08 35.21 34.18 34.30 34.16
44.25 44.40 45.44 45.84 46.01 45.56 45.59 45.52 44.97 45.09 45.62 46.31 46.92 48.07 49.02 50.64 52.44 50.14 43.77 43.54 41.26 38.92 33.40 35.40 44.59 42.88 46.63 44.85 44.31 43.87 41.70 40.47 39.07 40.46 36.99 34.82 31.78 38.11 34.87 36.64 35.21 36.40 34.38 33.11 32.95 36.05 36.02 36.95 37.04 35.85 35.93 37.30 36.46 37.41
44.35 44.35 44.48 45.66 45.44 45.35 45.47 45.40 45.37 45.50 46.05 46.26 46.82 47.96 49.34 51.25 51.76 49.01 46.41 45.34 44.56 37.40 35.48 35.95 40.59 42.61 42.79 41.83 42.84 43.48 41.44 38.18 37.19 37.02 35.74 33.64 37.44 37.29 38.95 38.51 36.54 36.16 33.48 31.45 30.29 36.09 35.01 34.09 37.53 38.05 36.94 36.05 37.05 36.76
44.77 44.90 44.39 45.68 45.71 45.15 45.32 45.30 45.63 45.90 46.03 46.38 46.94 47.87 49.30 49.97 47.97 43.27 39.95 43.73 42.99 42.65 36.60 33.35 36.84 37.83 40.53 41.72 40.62 43.11 42.69 38.56 37.34 38.16 38.18 39.79 42.17 40.16 36.26 34.00 37.02 38.64 40.49 39.75 35.93 39.72 39.46 38.74 38.85 38.83 36.89 37.36 38.21 37.49
45.66 45.79 45.45 45.14 45.10 45.08 45.12 45.20 45.56 45.90 45.96 46.13 46.59 48.42 50.39 48.56 44.43 40.54 40.09 43.72 46.66 44.19 38.72 34.13 30.85 38.54 42.81 42.35 41.03 42.22 41.85 39.62 40.08 39.95 38.77 40.16 39.51 41.25 38.50 33.25 34.29 39.48 41.54 40.74 41.02 41.04 38.95 39.03 36.04 37.79 38.20 38.60 38.91 38.24
45.63 45.12 45.12 45.07 44.98 44.81 45.10 45.20 45.66 45.85 45.90 46.46 48.33 49.19 48.18 47.26 45.53 38.34 41.06 46.44 46.11 41.90 40.53 32.42 31.98 33.59 40.94 37.55 38.13 43.00 40.69 42.43 42.07 41.27 42.45 41.45 43.10 41.83 36.18 36.55 38.31 41.19 40.63 40.63 40.83 41.98 41.81 39.48 38.84 38.35 38.85 38.56 36.99 36.56
45.05 45.03 44.98 44.59 44.55 44.71 44.95 45.10 45.68 45.66 46.16 46.29 47.35 46.62 44.51 42.03 39.21 37.37 48.86 49.68 45.29 41.87 35.87 36.23 30.72 27.06 40.85 41.57 42.97 45.55 46.15 40.26 43.63 39.84 40.08 42.71 40.56 36.40 37.07 37.68 39.25 39.70 39.62 39.87 41.60 42.36 42.34 40.22 37.75 38.22 37.94 37.73 36.81 36.89
44.16 44.23 44.06 44.26 44.47 44.88 45.10 45.25 45.53 45.54 45.86 46.96 44.45 39.57 35.68 38.82 46.78 47.61 43.44 39.20 38.32 38.46 38.80 33.94 36.85 31.41 36.02 35.18 35.13 41.81 44.13 39.98 38.06 40.09 42.82 40.62 37.50 38.32 39.93 40.20 40.19 40.69 42.72 41.00 38.68 40.63 40.77 39.05 37.68 37.70 37.24 38.14 38.33 38.05
43.60 43.77 44.14 44.50 44.59 44.82 45.12 45.36 45.39 45.48 44.76 42.62 39.59 36.55 39.61 47.86 40.78 41.35 36.87 35.53 35.97 32.35 36.08 36.00 35.45 31.98 36.63 31.66 32.01 37.93 37.92 38.12 33.67 35.76 37.83 34.35 31.87 37.13 39.90 39.93 40.61 43.04 42.84 41.14 41.62 42.11 42.10 40.32 39.15 38.35 37.83 38.78 38.97 39.00
43.13 43.33 43.65 43.89 44.04 44.62 45.00 44.65 44.88 40.90 41.19 41.23 40.27 43.08 40.11 38.23 36.99 34.26 34.32 36.10 34.92 31.05 35.04 32.66 34.01 35.36 35.60 37.71 33.65 35.16 36.92 38.63 33.86 40.11 38.49 31.86 36.48 39.90 41.11 40.29 41.11 42.95 40.14 41.14 42.51 43.35 41.90 41.30 40.73 39.62 39.03 38.30 39.05 39.51
42.95 43.05 43.27 43.54 44.09 44.73 44.57 44.42 44.78 44.66 43.31 40.06 37.73 36.70 33.56 32.97 28.72 28.12 26.92 32.53 33.71 36.61 37.54 37.22 38.53 38.94 38.12 39.08 35.71 37.19 35.85 35.44 40.92 35.15 34.70 35.08 38.02 41.09 41.28 41.38 42.19 43.71 41.93 42.51 43.72 44.21 43.52 41.66 41.73 41.06 39.69 39.93 40.14 40.06
42.86 43.15 43.16 43.50 43.35 43.87 44.14 44.23 44.37 43.62 39.56 33.26 33.19 26.26 28.53 27.54 30.69 29.98 31.29 32.95 37.43 37.44 38.40 40.16 39.75 41.58 41.65 38.36 40.93 37.15 38.79 39.85 33.82 30.47 34.13 35.36 37.87 41.88 42.23 42.37 43.19 42.07 41.92 41.80 43.52 43.49 43.60 42.07 41.44 41.46 41.12 41.30 40.84 40.11
42.77 42.86 43.08 42.74 43.15 43.22 43.52 43.91 44.26 41.98 37.92 31.74 33.19 26.48 27.78 32.08 33.23 34.73 35.62 34.65 36.67 41.17 40.34 39.03 39.69 40.18 40.87 39.47 40.38 39.39 37.40 34.98 35.93 33.99 36.38 37.20 38.92 41.28 40.03 43.09 42.88 41.92 42.47 42.79 43.46 40.83 42.34 43.71 42.53 41.76 42.30 41.96 41.95 41.60
42.62 42.48 40.71 42.84 43.08 43.28 43.53 43.47 42.18 41.04 37.57 34.27 31.58 29.49 31.72 29.81 30.21 32.03 32.47 32.27 36.21 37.80 38.06 41.89 39.51 38.29 38.34 38.94 37.30 36.86 36.30 34.18 34.79 39.70 39.64 38.81 38.81 41.17 41.91 43.99 44.21 44.82 44.68 41.67 41.88 41.57 41.00 41.32 42.20 42.95 42.94 42.95 43.45 43.36
42.12 38.08 41.82 43.00 43.10 43.82 44.29 41.07 39.16 34.38 33.02 33.04 28.88 31.41 30.34 29.60 29.02 30.32 31.51 32.21 35.03 35.59 32.80 35.21 35.23 35.35 40.15 37.95 36.58 39.85 38.08 38.42 39.52 39.93 39.90 39.10 38.58 39.30 44.19 45.35 45.71 45.90 45.40 41.94 41.83 41.70 40.64 40.30 40.30 41.18 40.77 42.32 42.40 42.84
38.53 39.34 42.16 42.82 43.26 42.16 41.09 40.13 36.12 32.73 30.31 31.20 29.01 30.20 32.09 32.74 31.14 31.25 32.81 34.29 34.41 35.30 36.04 33.63 38.94 35.67 34.21 35.25 35.60 41.55 41.88 40.90 41.41 41.55 40.02 40.34 42.58 44.98 45.69 45.41 46.31 45.92 45.17 42.80 42.27 41.42 40.69 39.90 38.59 37.67 38.46 39.15 39.43 39.53
39.84 40.33 42.28 43.24 42.78 39.34 34.71 35.21 35.21 30.41 31.60 33.09 33.29 33.78 33.83 33.17 34.58 35.37 35.65 36.44 38.32 38.22 35.09 36.79 34.29 34.88 37.64 41.55 41.17 42.85 42.80 41.18 40.49 39.69 40.49 42.45 45.27 45.24 45.85 45.83 46.04 44.79 43.55 42.50 42.13 40.71 40.44 40.43 39.46 38.77 37.99 38.26 36.92 37.59
43.12 43.65 43.78 44.03 43.35 36.79 33.25 34.97 37.08 33.88 31.75 33.56 34.46 32.95 33.23 33.00 34.95 35.84 36.93 38.15 36.89 34.93 34.22 35.64 36.59 41.61 41.77 43.71 45.37 45.12 44.94 43.57 41.98 39.61 38.26 42.63 45.05 44.54 44.15 44.33 44.11 44.81 42.50 42.26 42.41 41.26 40.23 40.04 40.16 39.79 39.70 39.05 38.18 37.14
42.83 42.97 44.10 43.53 41.05 38.21 35.93 36.81 35.15 34.49 34.29 34.07 36.45 34.98 33.94 36.36 34.30 34.59 36.58 40.21 37.00 35.92 35.95 39.96 42.48 44.19 46.76 48.03 48.63 46.63 43.27 44.61 41.11 40.87 40.54 38.92 39.86 39.77 41.60 43.21 42.86 42.77 42.09 42.44 41.26 40.79 40.48 39.85 39.82 40.23 39.81 39.89 39.81 39.49
41.03 42.88 40.11 40.91 37.61 37.49 35.40 38.64 36.49 38.78 37.08 37.01 37.39 37.42 34.57 34.11 34.49 36.45 40.77 36.56 36.44 38.21 41.33 41.81 44.31 45.94 46.52 47.36 48.73 48.75 46.44 45.41 44.31 43.15 41.17 40.27 38.11 37.94 38.59 40.29 41.52 41.60 41.46 41.39 42.19 41.88 41.39 42.09 42.23 41.47 39.81 39.07 39.19 40.05
42.52 40.99 39.70 38.70 35.64 34.89 33.46 40.31 35.90 35.90 32.64 34.83 38.17 36.12 35.89 36.03 38.99 40.98 37.06 37.78 38.85 44.16 44.41 45.40 47.82 48.05 46.53 48.52 49.88 48.75 47.61 44.31 42.53 43.03 41.60 40.67 40.27 40.80 40.21 40.06 42.02 41.94 40.92 41.83 42.98 42.42 42.35 41.05 41.65 42.38 40.48 40.33 40.09 39.34
42.30 38.28 36.15 34.26 33.68 32.10 36.90 35.97 37.48 36.26 36.62 34.17 35.16 35.05 36.52 38.96 40.39 37.38 35.61 36.90 39.78 43.65 43.37 45.92 47.23 45.59 46.45 46.63 47.34 47.05 45.26 45.21 42.27 42.40 44.08 43.48 42.35 42.06 43.13 43.18 43.92 44.02 43.72 42.93 42.07 42.04 41.51 41.90 41.38 42.76 41.77 40.92 40.60 40.21
33.08 30.88 32.93 29.72 35.02 33.42 32.86 34.12 35.20 35.91 35.91 36.00 36.31 36.47 38.18 40.55 36.76 36.43 36.32 37.60 39.69 40.53 42.53 43.96 44.67 46.84 45.04 44.82 46.41 48.48 49.88 47.10 45.18 44.50 44.83 44.98 45.69 45.47 44.66 45.45 45.94 46.35 46.76 45.16 43.05 42.71 42.16 42.35 43.01 42.99 42.27 41.70 40.48 40.81
27.40 32.08 27.55 32.80 32.40 32.09 33.78 34.84 34.57 34.83 36.49 36.01 37.60 40.20 40.91 38.01 36.18 35.19 36.99 38.79 40.93 42.12 43.72 44.16 43.37 43.08 42.71 44.29 44.40 45.94 47.27 48.80 48.42 45.54 46.41 47.26 45.92 44.13 44.38 44.18 43.60 44.24 46.65 47.15 44.43 43.28 42.31 42.09 42.62 42.55 42.50 40.85 36.38 42.09
27.08 30.87 34.41 38.12 36.51 37.59 36.62 37.99 37.68 36.68 36.03 36.01 37.71 37.99 36.98 35.36 35.99 39.04 42.46 44.04 41.51 43.49 45.42 46.78 45.13 43.18 42.20 43.50 45.36 47.28 48.11 48.00 48.41 48.46 47.58 47.10 46.90 48.78 48.39 46.71 45.14 46.18 46.83 47.33 46.28 45.15 43.41 43.28 42.74 42.59 41.94 41.25 41.36 42.06
34.83 36.50 34.08 36.35 35.61 36.61 34.88 35.63 36.25 35.87 36.25 40.37 41.18 37.46 36.01 38.03 39.07 43.33 46.68 47.75 45.76 46.63 46.57 46.70 45.93 45.00 45.07 45.62 46.87 48.85 48.50 49.31 49.44 49.29 48.54 47.87 48.78 48.39 48.56 46.94 46.64 40.82 47.57 48.59 48.57 47.36 45.37 45.10 45.07 45.48 44.00 43.41 43.37 43.18
33.85 36.37 36.86 34.98 36.98 37.39 37.50 38.06 39.12 42.28 44.84 42.66 39.59 38.67 38.57 44.35 47.07 46.60 46.12 47.45 47.68 45.92 45.13 44.88 43.42 46.63 46.84 45.45 45.22 45.79 46.38 47.05 45.93 43.89 42.88 40.94 43.19 44.64 46.99 48.33 48.38 47.99 48.08 46.58 35.42 44.45 48.91 48.27 47.30 46.75 46.71 45.81 45.07 45.01
35.47 38.23 35.99 37.68 37.76 37.54 40.96 43.54 42.81 44.34 43.63 43.19 42.46 41.17 43.84 45.31 47.02 47.61 48.57 48.38 46.19 43.41 43.60 43.79 43.76 44.86 43.84 44.41 44.53 45.03 47.32 47.86 47.58 45.91 44.06 43.37 43.80 45.14 48.43 49.00 48.86 47.68 47.52 47.03 46.63 44.36 36.60 45.18 43.31 47.97 47.51 47.21 45.87 44.20
38.41 37.75 38.09 39.23 38.94 42.31 43.53 42.03 41.62 41.70 41.04 39.82 40.56 40.20 41.91 43.88 45.84 47.85 48.52 48.38 46.93 44.35 45.01 44.54 42.58 43.92 44.39 45.61 45.55 44.47 43.01 44.69 47.57 47.73 47.17 47.04 46.21 47.77 47.54 48.17 48.54 48.86 48.41 47.95 47.33 46.70 45.35 46.54 45.41 46.66 46.59 46.34 45.51 44.52
37.54 37.88 38.43 37.83 39.80 44.20 44.30 39.61 38.86 38.62 39.61 39.28 39.00 41.37 42.00 41.18 39.85 44.34 48.11 48.23 46.45 45.70 40.56 44.20 44.00 42.48 43.84 44.19 43.60 42.52 38.53 41.93 42.71 45.20 46.18 46.58 47.69 47.85 48.04 48.53 48.93 49.02 48.00 46.32 47.35 47.45 47.96 47.28 46.23 45.95 45.96 46.18 45.84 44.96
36.54 37.09 38.08 40.26 40.54 40.24 42.29 40.04 39.48 37.84 38.04 37.89 38.18 39.41 39.95 40.80 39.13 43.60 48.95 50.14 47.66 46.03 45.83 45.71 44.35 44.31 43.47 42.50 41.49 39.85 38.25 38.37 35.27 33.60 34.55 34.49 35.25 39.03 44.76 46.15 45.39 45.97 47.03 46.28 46.52 47.58 46.89 46.18 45.59 45.38 44.34 43.39 42.41 41.95
MSLP
1030.64 1030.40 1030.07 1029.73 1029.57 1029.08 1028.83 1028.21 1027.66 1027.46 1026.72 1026.56 1025.93 1025.14 1024.51 1024.07 1023.66 1023.89 1023.32 1023.10 1023.25 1022.52 1020.37 1019.43 1018.96 1018.48 1018.51 1018.95 1019.46 1018.68 1018.61 1018.59 1018.89 1019.02 1018.96 1018.35 1017.59 1016.45 1015.57 1014.45 1014.07 1014.15 1014.20 1013.99 1013.68 1012.96 1011.59 1011.21 1011.70 1012.20 1011.86 1010.69 1010.00 1008.77
1030.16 1030.08 1029.78 1029.42 1029.23 1028.85 1028.55 1028.14 1027.68 1027.14 1026.63 1026.03 1025.64 1025.14 1024.21 1023.75 1023.33 1023.53 1023.63 1022.81 1023.05 1022.93 1020.37 1018.86 1018.06 1017.53 1017.51 1016.94 1018.24 1018.54 1018.61 1018.74 1018.98 1019.28 1019.12 1018.90 1018.09 1017.01 1016.13 1015.21 1014.29 1014.47 1014.76 1014.70 1014.61 1013.22 1012.11 1012.25 1012.20 1012.11 1011.98 1011.01 1009.68 1008.93
1029.73 1029.52 1029.53 1029.23 1028.82 1028.54 1028.27 1027.90 1027.51 1026.73 1026.26 1025.80 1025.28 1024.71 1023.92 1023.29 1022.78 1022.92 1023.11 1023.11 1022.86 1022.10 1019.93 1018.24 1016.33 1015.44 1015.35 1015.14 1015.94 1017.27 1017.75 1017.87 1018.55 1018.19 1018.78 1018.81 1018.34 1017.26 1016.25 1015.13 1014.72 1014.20 1014.56 1014.70 1014.24 1012.73 1012.59 1012.28 1012.16 1012.08 1011.64 1010.68 1009.65 1008.59
1029.39 1029.13 1029.05 1028.82 1028.55 1028.11 1027.96 1027.59 1027.00 1026.45 1025.93 1025.41 1024.77 1024.12 1023.41 1022.52 1021.67 1022.07 1022.76 1022.82 1023.00 1022.63 1021.33 1017.52 1015.61 1015.08 1014.20 1014.52 1015.22 1015.59 1016.27 1017.30 1017.85 1018.44 1018.43 1018.30 1017.88 1016.85 1015.59 1014.87 1014.63 1014.30 1014.42 1014.09 1013.52 1012.79 1012.41 1012.04 1012.14 1011.80 1011.06 1010.33 1009.21 1007.90
1028.88 1028.71 1028.56 1028.29 1028.12 1027.86 1027.58 1027.13 1026.63 1026.09 1025.58 1024.97 1024.28 1023.63 1022.86 1021.97 1021.60 1022.22 1022.58 1022.48 1022.60 1023.00 1021.43 1018.79 1016.06 1013.48 1013.11 1013.41 1013.98 1014.85 1015.97 1016.94 1017.79 1018.31 1018.04 1017.55 1016.84 1016.16 1014.87 1014.34 1013.83 1013.91 1013.91 1013.97 1013.43 1012.96 1012.97 1012.56 1012.08 1011.70 1011.00 1010.37 1009.45 1008.33
1028.20 1028.10 1027.99 1027.81 1027.68 1027.41 1027.07 1026.71 1026.30 1025.77 1025.14 1024.55 1023.79 1023.12 1022.56 1022.26 1022.38 1022.65 1022.58 1022.38 1022.45 1022.57 1022.24 1019.75 1016.29 1013.76 1012.74 1012.61 1013.16 1014.16 1015.01 1016.25 1016.79 1017.06 1016.83 1016.11 1015.28 1015.25 1014.36 1013.81 1012.87 1012.87 1012.98 1013.04 1013.05 1012.48 1012.50 1012.48 1012.31 1011.91 1011.35 1010.69 1009.84 1008.95
1027.46 1027.39 1027.34 1027.35 1027.21 1026.97 1026.65 1026.29 1025.84 1025.30 1024.73 1024.21 1023.55 1022.66 1022.29 1022.47 1022.76 1022.85 1022.76 1022.36 1022.25 1022.56 1021.80 1020.10 1017.43 1014.16 1012.34 1012.19 1013.09 1014.26 1014.80 1015.39 1015.79 1016.09 1015.69 1015.01 1014.43 1014.39 1013.56 1013.11 1012.28 1012.45 1012.46 1012.43 1012.32 1012.33 1012.09 1012.30 1012.46 1012.13 1011.64 1010.99 1010.36 1009.61
1026.82 1026.87 1026.88 1026.79 1026.66 1026.43 1026.10 1025.79 1025.47 1024.99 1024.51 1023.98 1023.20 1022.72 1022.65 1022.72 1022.68 1022.55 1021.56 1021.22 1021.74 1021.96 1021.59 1020.62 1017.75 1015.51 1012.25 1012.18 1012.76 1013.01 1014.15 1014.83 1014.86 1014.56 1014.28 1013.71 1013.34 1013.13 1012.50 1011.63 1011.93 1012.07 1012.14 1011.93 1011.79 1011.90 1011.91 1012.30 1012.47 1012.26 1011.98 1011.35 1010.76 1010.35
1026.29 1026.34 1026.31 1026.22 1026.09 1025.92 1025.64 1025.42 1025.13 1024.70 1024.27 1023.97 1023.40 1023.13 1023.08 1022.88 1022.47 1021.84 1020.91 1020.35 1021.22 1021.89 1021.00 1019.53 1017.98 1016.21 1012.81 1012.21 1012.18 1012.54 1012.83 1013.51 1013.55 1013.37 1012.84 1012.64 1012.04 1011.89 1010.76 1011.01 1011.51 1011.75 1011.77 1011.41 1011.36 1011.42 1011.69 1012.05 1012.29 1012.29 1012.23 1011.85 1011.43 1011.04
1025.76 1025.74 1025.69 1025.58 1025.50 1025.47 1025.30 1025.12 1024.79 1024.38 1023.98 1023.37 1023.68 1023.39 1022.85 1022.10 1021.08 1021.05 1021.01 1021.19 1021.51 1021.08 1020.14 1018.56 1017.46 1016.22 1014.78 1013.60 1012.68 1012.23 1012.11 1012.10 1012.16 1011.67 1011.36 1011.08 1010.68 1010.44 1010.15 1010.38 1010.91 1011.29 1011.19 1011.25 1011.57 1011.41 1011.55 1011.94 1012.10 1012.32 1012.42 1012.44 1012.15 1011.77
1025.18 1025.13 1025.12 1025.01 1024.91 1024.85 1024.83 1024.65 1024.57 1024.32 1023.87 1023.72 1023.51 1023.05 1022.20 1021.30 1021.29 1020.97 1020.62 1020.55 1020.45 1019.54 1018.47 1017.05 1016.44 1016.03 1014.76 1014.09 1013.13 1012.13 1011.48 1011.06 1011.23 1010.54 1010.59 1010.38 1010.20 1010.40 1010.64 1010.75 1010.79 1010.89 1010.93 1011.08 1011.33 1011.32 1011.43 1011.84 1012.10 1012.34 1012.61 1012.82 1012.75 1012.55
1024.53 1024.56 1024.51 1024.56 1024.50 1024.36 1024.27 1024.33 1024.29 1024.58 1024.15 1024.03 1024.22 1023.28 1022.47 1021.88 1021.21 1020.72 1019.82 1019.47 1018.92 1017.65 1016.23 1015.64 1014.85 1014.97 1013.98 1013.09 1012.71 1011.36 1010.87 1010.44 1010.04 1009.65 1010.17 1010.06 1009.61 1009.94 1010.41 1010.53 1010.59 1010.67 1010.92 1010.91 1010.79 1010.96 1011.35 1012.02 1012.20 1012.34 1012.70 1013.17 1013.16 1013.08
1023.96 1023.98 1023.96 1023.91 1023.86 1023.80 1023.74 1023.91 1023.93 1023.87 1023.85 1023.70 1023.42 1022.95 1022.24 1021.36 1020.60 1019.78 1018.50 1017.47 1016.52 1015.49 1014.42 1014.40 1014.13 1013.50 1012.80 1011.98 1011.75 1010.85 1009.93 1009.48 1009.08 1009.69 1009.68 1009.15 1009.48 1009.99 1010.28 1010.42 1010.51 1010.52 1010.82 1010.70 1010.30 1010.42 1011.51 1012.13 1012.51 1012.56 1012.89 1013.42 1013.57 1013.52
1023.26 1023.32 1023.31 1023.22 1023.25 1023.28 1023.31 1023.39 1023.46 1023.71 1023.98 1024.04 1023.12 1022.25 1021.41 1020.05 1018.86 1017.32 1016.52 1015.79 1014.97 1014.16 1013.51 1013.48 1013.09 1012.87 1012.09 1011.35 1010.08 1009.79 1008.64 1008.51 1008.99 1009.30 1008.94 1009.00 1009.41 1009.80 1010.18 1010.41 1010.43 1010.40 1010.68 1010.66 1010.43 1010.66 1011.30 1012.11 1012.78 1013.26 1013.42 1013.62 1013.82 1014.00
1022.56 1022.62 1022.53 1022.54 1022.63 1022.63 1022.70 1022.84 1023.03 1023.52 1023.57 1023.39 1022.50 1020.74 1019.38 1018.06 1017.07 1016.42 1016.21 1015.92 1015.37 1014.87 1014.40 1013.60 1012.50 1011.60 1011.46 1010.65 1009.07 1008.50 1007.92 1007.69 1007.89 1008.32 1008.68 1009.05 1009.52 1009.82 1010.30 1010.43 1010.43 1010.57 1010.57 1010.38 1010.37 1010.49 1011.07 1011.93 1012.72 1013.34 1013.70 1013.98 1014.18 1014.45
1021.83 1021.79 1021.63 1021.72 1021.72 1021.86 1022.03 1022.28 1022.58 1022.81 1022.46 1022.28 1021.26 1019.55 1018.42 1017.93 1017.19 1016.70 1016.19 1015.74 1015.51 1015.25 1014.65 1013.93 1012.81 1011.45 1010.71 1010.14 1008.81 1007.93 1007.30 1007.06 1007.72 1008.03 1008.52 1009.18 1009.79 1009.89 1010.20 1010.40 1010.66 1010.51 1010.37 1010.11 1010.28 1010.64 1011.10 1011.74 1012.42 1013.17 1013.70 1014.08 1014.34 1014.53
1021.07 1020.92 1020.70 1020.78 1020.92 1021.07 1021.25 1021.63 1021.79 1021.60 1020.97 1020.09 1018.99 1018.41 1017.98 1017.45 1016.74 1016.54 1016.25 1015.80 1015.50 1015.73 1015.72 1015.30 1012.62 1011.13 1010.22 1008.83 1007.57 1006.63 1006.86 1007.20 1007.71 1008.44 1009.00 1009.41 1009.78 1009.98 1010.16 1010.47 1010.53 1010.54 1010.19 1010.21 1010.46 1010.92 1011.42 1011.88 1012.38 1013.18 1013.91 1014.24 1014.51 1014.81
1020.14 1020.12 1020.09 1020.10 1020.33 1020.55 1020.44 1020.56 1020.57 1020.03 1018.89 1018.24 1017.59 1016.76 1016.72 1015.91 1015.94 1015.56 1015.43 1015.42 1015.82 1015.59 1015.54 1015.28 1014.35 1011.32 1009.84 1008.41 1007.47 1007.34 1007.55 1007.99 1008.21 1008.64 1009.23 1009.66 1009.90 1010.12 1010.39 1010.52 1010.48 1010.52 1010.49 1010.43 1010.71 1011.27 1011.77 1012.26 1012.80 1013.37 1013.72 1014.10 1014.56 1015.05
1019.05 1019.12 1019.22 1019.42 1019.71 1019.82 1019.66 1019.45 1019.56 1018.28 1017.01 1016.27 1015.27 1014.99 1014.78 1014.58 1014.35 1014.17 1014.40 1014.48 1014.60 1014.87 1015.38 1014.66 1013.05 1010.40 1008.72 1007.60 1006.79 1007.08 1007.11 1008.05 1008.74 1009.31 1009.68 1009.82 1009.94 1010.37 1010.73 1010.85 1010.93 1010.92 1010.97 1010.94 1011.20 1011.67 1012.13 1012.53 1013.10 1013.54 1013.96 1014.30 1014.88 1015.36
1017.87 1017.90 1018.09 1018.35 1018.87 1018.77 1018.74 1018.14 1018.02 1016.72 1015.10 1013.70 1013.28 1012.84 1012.68 1012.60 1012.42 1012.79 1012.99 1013.28 1013.87 1014.12 1014.08 1012.77 1010.78 1008.98 1007.59 1006.60 1006.30 1006.38 1006.76 1007.65 1008.52 1009.45 1009.95 1010.13 1010.35 1010.70 1011.03 1011.27 1011.50 1011.29 1011.40 1011.43 1011.63 1011.98 1012.51 1013.04 1013.31 1013.57 1013.95 1014.36 1014.88 1015.60
1016.60 1016.12 1016.34 1016.79 1017.10 1017.52 1017.27 1016.21 1015.35 1014.66 1013.18 1012.15 1011.05 1011.04 1010.90 1010.35 1010.79 1011.17 1011.51 1011.90 1012.45 1012.15 1011.33 1010.25 1009.09 1007.97 1007.07 1006.07 1005.91 1006.48 1006.97 1007.27 1008.11 1008.61 1009.45 1010.42 1010.79 1011.03 1011.30 1011.35 1011.54 1011.52 1011.55 1011.77 1012.09 1012.42 1012.70 1013.08 1013.46 1013.72 1014.14 1014.52 1014.81 1015.47
1015.70 1015.71 1015.85 1016.00 1015.90 1016.06 1015.82 1014.70 1014.04 1012.84 1012.25 1010.98 1010.44 1010.21 1009.56 1009.11 1009.28 1009.72 1010.27 1011.09 1010.74 1009.88 1008.96 1008.21 1007.59 1006.84 1006.55 1006.17 1006.11 1006.28 1006.84 1007.42 1008.07 1008.70 1009.48 1010.04 1010.82 1011.21 1011.62 1011.63 1011.48 1011.57 1011.78 1011.99 1012.20 1012.55 1012.83 1012.95 1013.29 1013.74 1014.19 1014.67 1015.02 1015.60
1015.48 1015.72 1015.53 1015.48 1015.14 1014.45 1013.51 1012.90 1012.65 1011.71 1010.93 1009.68 1009.22 1008.64 1008.21 1007.81 1007.64 1007.88 1008.56 1008.33 1007.97 1006.89 1006.51 1006.40 1005.74 1005.66 1005.89 1005.95 1006.02 1006.55 1006.95 1007.52 1008.39 1008.83 1009.51 1010.10 1010.58 1011.09 1011.46 1011.58 1011.61 1011.72 1011.84 1011.91 1012.07 1012.35 1012.60 1012.75 1013.22 1013.66 1014.15 1014.72 1015.30 1015.88
1015.34 1015.05 1014.54 1014.29 1014.06 1012.91 1011.83 1011.48 1010.99 1010.41 1009.45 1008.97 1008.22 1007.42 1006.99 1006.60 1006.43 1006.60 1006.20 1005.57 1005.20 1005.02 1005.18 1005.06 1005.32 1005.69 1005.97 1006.27 1006.57 1006.98 1007.36 1007.79 1008.50 1009.13 1009.58 1010.13 1010.88 1011.35 1011.57 1011.76 1011.65 1011.52 1011.56 1011.72 1012.16 1012.36 1012.60 1012.91 1013.22 1013.71 1014.26 1014.88 1015.44 1015.89
1014.79 1014.29 1013.95 1013.11 1012.25 1011.52 1010.51 1009.76 1009.11 1008.88 1008.03 1007.67 1007.08 1006.71 1005.95 1005.58 1005.61 1005.41 1005.04 1004.84 1004.83 1004.85 1004.92 1005.21 1005.48 1005.85 1006.36 1006.94 1007.24 1007.56 1007.57 1007.83 1008.61 1009.25 1009.79 1010.03 1010.75 1011.35 1011.64 1011.48 1011.53 1011.42 1011.38 1011.78 1012.31 1012.56 1012.83 1013.03 1013.43 1013.96 1014.44 1014.90 1015.43 1015.87
1013.59 1012.62 1012.28 1011.31 1010.67 1010.21 1009.42 1008.74 1007.98 1007.53 1006.94 1006.16 1006.02 1005.92 1005.26 1005.17 1005.03 1004.74 1004.54 1004.45 1004.43 1004.63 1004.74 1005.03 1005.60 1006.19 1006.57 1006.71 1007.24 1007.53 1007.79 1007.92 1008.30 1009.01 1009.69 1009.85 1010.31 1010.76 1011.17 1011.68 1012.12 1012.32 1012.15 1012.12 1012.32 1012.70 1013.04 1013.25 1013.63 1014.17 1014.65 1014.94 1015.21 1015.63
1012.33 1011.30 1010.68 1009.99 1009.62 1009.07 1008.85 1008.19 1007.84 1007.49 1006.77 1006.27 1006.00 1005.49 1005.14 1004.90 1004.98 1004.99 1004.41 1004.39 1004.33 1004.34 1004.43 1004.76 1005.20 1005.90 1006.29 1006.56 1006.75 1007.00 1007.36 1007.70 1008.09 1008.57 1009.10 1009.69 1010.04 1010.29 1010.70 1011.07 1011.28 1011.30 1011.41 1011.52 1011.90 1012.30 1012.78 1013.19 1013.60 1013.95 1014.46 1014.86 1015.10 1015.36
1010.87 1010.28 1009.55 1008.84 1008.71 1008.34 1008.15 1007.78 1007.24 1006.48 1006.57 1006.44 1006.15 1005.47 1005.45 1005.45 1005.76 1005.62 1005.12 1004.93 1004.54 1004.36 1004.79 1005.15 1005.42 1005.72 1006.18 1006.55 1006.83 1007.19 1007.67 1007.98 1008.35 1008.71 1009.34 1009.82 1010.00 1010.21 1010.36 1010.60 1010.57 1010.67 1011.11 1011.38 1011.84 1012.18 1012.53 1012.95 1013.43 1013.73 1014.07 1014.66 1015.07 1015.22
1009.37 1008.52 1008.32 1007.87 1007.48 1007.08 1006.68 1006.43 1006.36 1006.06 1005.67 1005.39 1005.51 1005.84 1006.03 1006.03 1006.13 1005.96 1005.88 1005.68 1005.17 1005.05 1005.70 1006.13 1006.36 1006.28 1006.73 1007.02 1007.34 1007.70 1007.98 1008.23 1008.72 1009.38 1009.91 1010.45 1010.84 1011.14 1010.80 1010.84 1010.87 1011.14 1011.50 1011.86 1011.97 1012.09 1012.49 1012.66 1013.25 1013.48 1013.95 1014.46 1014.92 1015.23
1007.68 1007.21 1007.23 1006.70 1006.52 1006.41 1006.52 1006.27 1006.52 1006.34 1005.97 1005.82 1006.06 1006.43 1006.57 1006.63 1006.57 1006.24 1005.91 1005.88 1005.97 1006.09 1006.27 1006.40 1006.67 1007.09 1007.72 1008.06 1008.49 1008.81 1008.78 1008.91 1009.09 1009.56 1010.10 1010.64 1010.96 1011.05 1011.13 1011.27 1011.50 1011.76 1011.86 1012.05 1012.43 1012.92 1012.91 1013.11 1013.56 1013.94 1014.29 1014.66 1015.03 1015.32
1006.41 1006.31 1006.37 1006.57 1006.75 1006.67 1006.83 1006.83 1006.72 1006.66 1006.81 1007.19 1007.15 1007.29 1007.31 1007.34 1007.23 1007.09 1006.90 1006.81 1006.57 1006.35 1006.70 1007.23 1007.64 1007.98 1008.33 1008.72 1009.00 1009.38 1010.04 1009.94 1009.71 1010.01 1010.23 1010.62 1010.88 1011.15 1011.51 1011.62 1011.81 1012.09 1012.32 1012.55 1012.87 1013.23 1013.55 1013.80 1014.06 1014.30 1014.64 1015.01 1015.35 1015.60
1005.49 1005.64 1006.19 1006.42 1006.39 1006.40 1006.52 1007.04 1007.67 1008.02 1008.12 1008.22 1008.41 1008.16 1008.06 1008.02 1008.13 1008.16 1007.84 1007.42 1007.15 1007.26 1007.66 1007.92 1008.38 1008.98 1009.09 1009.33 1009.67 1010.04 1010.34 1010.61 1010.73 1010.80 1010.96 1011.37 1011.60 1011.82 1011.99 1012.12 1012.28 1012.54 1012.83 1013.14 1013.32 1013.77 1014.00 1014.26 1014.55 1014.84 1015.14 1015.47 1015.87 1016.33
1004.85 1004.80 1004.89 1005.47 1006.30 1006.51 1006.63 1007.11 1007.91 1008.57 1008.82 1009.08 1009.19 1008.96 1008.74 1008.58 1008.67 1008.42 1008.18 1008.13 1008.18 1008.15 1008.28 1008.61 1008.99 1009.38 1009.70 1010.05 1010.51 1010.96 1011.17 1011.75 1011.83 1011.75 1012.04 1012.18 1012.34 1012.63 1012.83 1012.92 1013.09 1013.16 1013.37 1013.68 1013.92 1014.28 1014.62 1014.97 1015.33 1015.74 1016.14 1016.50 1016.96 1017.36
Wind_Speed
10 11 11 12 14 15 15 16 17 18 18 20 20 20 18 17 11 4 3 3 2 3 8 9 7 6 3 2 4 6 6 4 3 5 2 3 2 4 5 5 3 3 4 3 3 5 6 15 7 8 8 15 20 21
10 11 12 13 15 13 15 16 17 18 19 20 21 21 20 18 16 10 3 1 0 4 9 4 14 17 15 22 5 4 5 4 4 3 2 2 3 3 3 5 2 3 3 3 4 5 10 14 12 10 14 17 18 18
11 12 12 13 14 13 14 16 17 18 19 21 21 22 22 20 17 14 2 2 2 3 9 6 8 9 9 16 15 6 2 6 4 4 3 2 6 2 3 4 4 2 3 3 3 5 6 15 6 9 13 15 16 15
13 13 13 13 13 14 14 15 17 18 20 21 22 22 23 22 18 15 2 1 0 3 4 9 5 9 7 3 12 14 5 5 5 2 2 3 3 5 3 5 5 3 2 3 6 9 12 6 8 14 16 15 16 18
12 13 14 12 14 14 15 16 17 19 20 21 22 23 24 22 8 4 1 3 4 2 5 8 19 15 6 6 14 14 8 6 3 3 3 4 3 4 3 3 4 4 4 2 3 10 7 9 14 15 14 14 15 16
12 13 14 12 13 15 15 16 18 19 21 22 23 23 22 8 7 1 2 2 2 3 4 6 7 8 7 5 10 13 11 4 4 4 3 4 4 3 3 4 5 6 6 7 4 5 8 6 11 12 10 14 13 13
12 12 8 12 14 15 16 16 17 19 21 22 23 22 6 8 1 2 3 1 1 1 3 6 7 7 5 3 3 3 3 3 4 3 3 3 3 6 3 4 4 7 5 8 9 6 5 3 6 9 10 12 12 12
10 10 11 13 14 15 15 15 17 18 20 22 14 3 4 1 5 4 4 10 5 2 2 4 7 6 4 2 3 4 5 3 3 3 3 4 2 3 6 7 5 6 6 8 8 4 2 4 5 6 8 9 11 13
11 12 12 13 14 15 15 15 16 17 17 17 2 1 2 1 2 4 7 2 3 1 3 5 3 6 6 1 2 2 4 4 4 4 4 3 4 6 7 5 8 6 6 7 6 5 5 3 2 6 7 9 9 11
12 13 14 14 14 15 14 15 14 15 21 7 3 1 3 4 7 5 2 2 1 3 4 5 2 7 5 4 5 2 3 4 4 7 3 5 4 1 1 6 7 7 8 1 2 4 6 3 3 6 6 8 9 9
14 14 15 15 14 14 14 12 12 13 6 1 2 3 4 7 1 3 3 4 4 5 4 5 8 8 4 4 4 3 3 2 2 5 4 4 3 4 6 5 5 5 4 5 3 5 4 6 4 7 6 8 9 9
15 15 15 14 15 15 11 10 10 3 2 4 5 6 3 2 3 4 3 4 6 6 5 5 6 6 5 4 3 4 4 1 5 3 2 4 2 7 7 5 5 4 3 6 4 2 13 8 6 9 8 9 8 9
15 15 15 15 15 16 10 10 11 10 5 3 2 3 3 4 4 6 7 5 5 5 4 1 4 4 4 2 3 3 4 5 2 1 4 4 5 6 6 4 3 1 2 5 9 14 15 12 8 9 10 9 9 10
16 15 15 15 14 13 11 11 12 7 2 2 4 5 6 6 7 7 6 3 5 5 11 7 4 2 4 4 5 4 5 3 3 3 6 3 7 8 6 3 2 2 2 4 6 15 15 14 10 9 10 10 11 10
16 16 16 15 15 15 14 14 13 3 3 4 5 7 9 8 5 4 5 4 5 5 8 10 6 3 4 6 3 3 4 5 6 4 3 4 6 7 6 5 4 1 4 4 2 9 13 14 13 11 9 8 8 10
16 17 12 16 17 16 16 13 6 3 4 5 7 7 5 3 6 6 6 6 2 6 5 2 5 4 5 4 5 7 4 4 3 2 3 6 6 6 5 4 4 1 5 1 8 9 8 11 12 12 9 8 8 9
15 5 7 12 14 16 16 6 4 6 6 8 6 5 7 7 8 7 5 8 2 4 3 3 7 6 3 5 5 2 2 2 5 5 4 6 7 7 4 4 4 2 4 8 9 9 7 6 8 12 10 9 7 7
9 7 14 15 11 6 3 5 4 6 9 9 8 9 10 9 11 11 10 9 4 3 2 3 8 5 4 7 0 1 3 2 3 5 4 5 7 7 5 5 3 5 6 9 10 7 7 7 7 4 7 6 7 8
11 10 15 18 11 3 4 5 4 5 9 5 8 10 12 11 13 13 9 5 5 4 2 2 8 5 6 5 3 3 4 3 4 3 4 6 8 7 7 6 4 4 3 6 8 5 5 7 6 5 5 6 5 4
20 22 22 22 17 4 5 4 5 5 6 7 10 13 13 12 11 10 8 6 5 4 5 7 7 7 4 3 3 6 5 8 8 6 4 4 6 10 6 5 1 2 2 5 6 7 5 4 4 5 5 5 6 5
15 11 19 17 6 8 4 4 6 5 5 4 3 7 7 8 11 9 7 5 3 4 5 8 9 9 9 3 5 3 6 9 7 7 9 5 4 5 4 4 4 3 4 3 4 4 6 5 4 4 4 4 5 6
2 4 2 1 3 6 6 6 4 3 4 4 2 4 4 5 7 7 4 5 5 10 8 9 9 8 4 4 5 5 6 8 7 8 8 10 6 5 4 4 3 3 3 3 4 4 4 4 4 4 5 4 5 6
7 2 3 5 4 4 6 4 5 4 4 4 3 3 3 3 5 6 5 7 7 8 10 9 6 5 5 4 6 8 11 10 7 8 8 6 5 5 4 3 3 4 3 2 3 4 5 6 6 6 5 5 7 6
4 3 3 4 6 5 4 5 4 4 3 2 4 3 3 4 3 4 4 3 4 5 5 4 5 4 6 7 8 7 6 7 5 5 6 8 7 4 5 4 3 3 3 3 4 3 4 5 8 7 7 7 7 7
4 5 4 7 4 5 4 4 5 4 4 6 3 3 3 1 1 2 3 2 2 2 3 4 5 5 7 5 7 5 4 8 7 8 5 7 5 5 3 4 4 3 4 3 3 4 4 5 7 7 6 7 7 7
4 5 7 4 4 4 3 4 3 3 5 2 2 4 3 3 3 1 0 2 3 4 5 6 5 4 4 5 7 5 5 5 6 5 3 7 7 7 7 8 7 6 5 6 4 5 5 5 6 8 6 7 7 7
3 5 5 4 3 2 4 4 6 4 4 3 3 2 1 1 3 4 4 3 3 3 4 6 6 5 5 4 3 5 5 6 8 6 5 5 5 5 6 7 7 5 5 6 6 6 6 6 6 6 6 4 6 6
5 4 5 4 5 5 5 4 4 2 1 1 3 2 2 1 1 3 4 5 4 5 5 5 5 5 5 5 6 8 7 8 9 9 8 5 4 4 5 3 3 11 5 6 5 5 6 5 5 5 6 7 4 5
5 4 4 9 7 5 6 3 3 2 2 3 2 3 2 3 3 2 1 3 3 6 9 7 4 7 7 6 5 5 5 8 11 13 11 5 5 3 3 4 5 6 4 5 5 6 7 7 6 7 9 8 6 5
5 5 3 3 3 3 4 3 3 3 3 3 3 3 3 3 4 3 3 4 4 5 4 5 5 8 7 8 6 6 4 4 6 9 8 6 5 4 4 5 5 4 4 6 6 5 6 8 7 5 5 4 3 3
2 2 1 3 2 1 3 2 3 5 5 5 5 4 3 2 4 6 5 3 2 5 8 8 6 5 7 7 7 8 6 5 7 8 6 5 5 6 5 4 4 4 4 5 5 5 5 4 3 5 5 5 5 5
2 5 6 2 1 2 4 4 4 4 5 5 5 4 3 4 4 4 5 3 5 8 6 8 9 5 6 7 8 7 8 5 6 7 10 5 6 6 5 4 5 5 5 4 4 5 8 7 6 6 7 8 7 7
2 2 3 5 1 3 3 4 3 2 3 3 3 2 3 2 2 2 2 2 4 3 6 8 7 7 9 9 10 9 10 8 8 10 12 11 11 8 6 5 5 6 9 6 6 7 7 9 7 8 8 9 9 8
Wind_Direction
315 321 323 332 333 339 335 337 340 338 340 337 335 335 334 333 326 182 263 207 220 252 282 253 262 207 271 160 175 275 8 352 45 47 352 337 283 288 319 283 257 283 316 291 298 282 295 5 338 336 299 301 301 304
308 310 315 325 328 326 333 334 333 335 336 337 332 327 328 330 324 195 268 293 123 224 253 289 259 257 246 250 170 214 207 190 172 118 220 278 269 286 300 286 224 279 213 278 199 247 289 322 297 315 305 297 302 305
301 303 305 313 324 322 325 328 329 333 332 331 327 324 324 319 312 189 219 308 292 269 275 260 269 281 254 226 195 148 249 163 187 187 151 234 257 242 259 255 275 242 152 239 305 239 274 309 314 309 307 306 306 303
290 295 293 302 315 319 315 320 326 327 327 328 327 325 323 318 307 178 166 182 323 284 276 281 322 286 258 328 183 205 143 95 99 109 161 197 245 214 252 251 256 242 183 260 252 282 305 255 332 325 320 326 330 332
284 288 293 292 305 310 313 315 319 322 323 326 327 327 326 317 167 161 229 214 203 206 286 296 303 277 251 232 196 178 137 130 135 161 194 221 235 239 236 244 246 177 221 254 272 291 290 291 320 325 328 340 340 344
274 278 289 282 297 307 310 314 317 320 323 326 328 325 323 127 108 59 300 56 198 169 290 295 288 288 291 182 178 181 168 126 146 171 198 220 241 213 260 245 234 205 197 198 249 260 288 287 314 328 336 343 349 351
265 274 278 286 296 302 308 312 317 321 323 326 324 317 172 148 110 210 279 251 273 223 254 293 287 274 271 154 114 106 126 163 151 196 223 230 233 203 243 238 233 195 205 231 247 283 289 39 323 342 351 352 359 10
261 271 280 287 294 298 302 308 315 318 322 323 315 103 113 145 293 304 259 245 175 267 301 272 272 316 244 191 173 153 150 155 191 214 222 214 211 212 250 229 198 182 199 263 273 224 266 126 335 7 5 6 23 25
273 275 277 286 290 293 298 302 309 315 318 324 303 328 310 255 237 240 307 136 128 210 258 234 247 277 327 342 206 165 140 184 161 219 228 185 188 224 225 170 171 181 203 246 313 296 149 131 355 42 20 22 31 32
271 274 278 281 282 289 292 297 306 317 327 270 283 279 270 226 245 301 290 151 176 246 234 253 272 258 10 354 300 203 181 210 206 220 200 214 241 333 104 144 158 181 222 215 334 106 142 88 36 77 47 43 43 46
273 273 276 274 279 286 283 291 307 321 312 251 252 247 262 311 53 223 230 201 195 246 221 242 229 236 275 199 234 247 259 211 233 258 172 253 265 191 154 151 179 199 241 258 221 248 241 129 101 109 89 71 62 48
272 273 273 279 281 283 271 288 301 319 261 320 279 283 280 291 231 249 228 203 221 248 212 204 218 200 253 200 184 268 221 216 245 181 215 268 232 146 156 180 206 203 264 284 275 90 125 137 112 116 102 92 76 64
270 273 272 275 280 275 264 278 287 275 305 310 249 256 228 243 233 226 214 201 225 214 228 19 322 225 260 198 216 248 224 232 69 215 232 232 149 150 144 193 205 229 275 298 326 132 140 135 114 108 107 106 96 81
268 271 273 269 278 281 264 266 272 285 143 237 237 240 224 207 231 210 223 254 262 326 332 329 299 151 300 213 213 234 238 128 210 216 234 171 156 143 153 158 182 251 288 327 335 147 141 149 141 128 124 127 113 99
267 265 267 266 266 265 259 260 260 207 215 218 238 223 226 235 276 268 246 278 323 334 341 326 298 178 169 291 246 258 246 226 204 224 232 160 150 139 148 166 207 308 293 301 208 114 130 147 152 156 160 155 136 126
264 270 259 257 255 255 253 257 248 192 213 214 235 244 261 292 259 272 284 293 339 351 327 301 266 263 217 213 246 201 247 230 222 191 120 127 140 141 154 155 130 290 302 111 129 119 110 121 150 158 145 142 146 137
263 232 216 249 248 249 252 231 171 208 223 215 229 225 234 274 266 267 283 283 339 37 354 323 270 233 299 241 223 263 308 200 144 125 134 149 152 152 138 134 123 347 4 136 115 121 119 115 106 132 159 179 177 166
247 254 254 253 250 252 196 200 213 231 228 225 238 224 218 231 243 255 249 266 257 192 147 227 303 247 211 294 142 93 31 17 82 122 127 135 134 122 123 100 353 29 14 125 121 114 110 109 106 108 111 117 113 120
246 240 245 248 243 191 212 198 208 245 223 218 234 238 228 232 239 242 244 226 189 115 95 242 254 240 217 252 159 194 125 144 133 114 122 126 113 118 118 95 19 14 86 113 117 121 128 128 132 126 118 106 111 119
256 254 248 245 239 187 222 218 200 241 239 223 227 237 224 226 232 223 214 194 160 144 214 218 218 273 261 278 211 163 135 133 130 119 119 111 130 127 122 107 177 252 170 103 97 102 105 94 117 124 123 128 112 106
255 246 243 228 202 194 233 244 215 232 248 253 253 212 222 214 215 215 204 155 165 213 235 227 247 253 265 173 109 95 137 148 151 154 156 147 151 134 143 155 104 126 119 115 117 116 124 150 168 142 129 137 133 118
198 121 113 149 192 176 229 218 251 273 244 245 208 210 232 208 212 210 127 191 210 226 216 228 239 230 180 164 153 121 150 131 139 124 120 124 134 140 141 176 125 96 120 134 145 163 174 179 147 134 134 148 120 127
143 154 218 196 236 230 249 165 231 227 237 248 187 234 216 209 195 147 202 189 221 208 210 215 199 175 150 154 126 150 142 127 130 131 131 130 129 127 132 154 146 164 174 219 143 149 160 150 135 147 133 119 127 132
201 226 220 206 213 253 221 212 200 239 263 248 239 239 223 202 184 190 247 196 201 161 166 130 123 101 78 83 104 113 138 130 109 111 129 123 122 123 134 154 147 137 169 166 140 142 137 120 120 128 133 132 142 145
183 237 197 235 240 247 243 246 208 202 243 217 211 289 259 164 162 247 211 224 117 133 106 101 93 101 119 114 128 194 149 138 138 135 163 138 128 123 126 120 73 16 14 44 109 122 127 117 121 135 139 145 151 152
215 221 187 227 229 214 237 276 282 276 268 290 91 197 238 199 215 256 77 188 146 151 153 132 132 126 122 140 151 151 155 146 131 122 152 156 152 152 154 159 184 228 219 223 153 155 155 149 142 145 159 170 161 158
233 237 218 224 256 331 303 266 245 269 280 302 340 285 282 274 26 351 319 5 130 155 141 143 132 127 128 127 111 110 123 136 153 162 151 157 164 170 170 179 186 206 172 138 147 153 164 162 163 165 167 161 179 185
221 232 234 203 209 213 235 242 264 239 273 226 267 250 75 85 35 326 345 360 343 95 91 91 112 113 115 117 115 110 104 109 102 99 91 73 93 124 124 106 99 127 136 142 180 169 160 156 171 178 159 139 151 144
238 235 207 257 253 232 212 220 216 250 256 210 188 50 48 43 349 336 331 328 333 93 101 108 72 85 78 72 71 94 113 119 115 111 108 105 88 26 82 102 91 89 119 108 66 118 152 140 154 143 136 142 146 139
236 180 224 286 318 45 3 22 29 325 345 17 84 62 56 25 347 357 27 39 49 93 108 108 97 97 99 99 91 65 47 106 128 132 131 134 157 151 113 104 100 94 91 99 101 101 93 105 103 102 110 115 119 129
267 134 208 63 291 214 152 115 31 32 33 28 18 61 46 19 19 8 23 342 32 64 85 96 78 90 102 102 103 100 64 9 101 102 99 108 113 105 113 111 112 114 109 107 103 103 100 89 100 117 130 131 144 148
182 167 144 214 333 145 155 62 58 34 8 23 14 5 35 36 43 8 344 352 76 72 74 91 94 87 92 87 77 71 87 82 66 84 82 83 88 78 71 74 84 87 93 106 126 108 103 107 106 98 88 100 95 101
180 210 216 105 102 217 158 105 96 85 39 30 19 15 23 55 104 282 58 55 86 95 104 98 93 89 88 93 104 96 82 83 77 73 77 69 70 66 68 70 68 82 90 77 77 102 103 100 95 91 88 86 81 79